| time (UTC) | temp F | wind direction | speed MPH | gust MPH | rain 1hr in | rain 24hr in | rain mn in | humidity % | barometer mb |
| 20260503231513 | 61 | 224 | 0.0 | 4.0 | 0.00 | 0.00 | 0.00 | 28 | 1011.1 |
| 20260503230031 | 61 | 252 | 1.0 | 10.0 | 0.00 | 0.00 | 0.00 | 28 | 1010.9 |
| 20260503224553 | 61 | 336 | 3.0 | 9.0 | 0.00 | 0.00 | 0.00 | 27 | 1010.9 |
| 20260503223002 | 61 | 347 | 2.0 | 10.0 | 0.00 | 0.00 | 0.00 | 26 | 1010.8 |
| 20260503221520 | 61 | 25 | 2.0 | 12.0 | 0.00 | 0.00 | 0.00 | 27 | 1010.7 |
| 20260503220304 | 61 | 345 | 7.0 | 13.0 | 0.00 | 0.00 | 0.00 | 26 | 1010.8 |
| 20260503220021 | 61 | 324 | 4.0 | 13.0 | 0.00 | 0.00 | 0.00 | 26 | 1010.8 |
| 20260503214541 | 61 | 284 | 3.0 | 11.0 | 0.00 | 0.00 | 0.00 | 27 | 1010.8 |
| 20260503213001 | 61 | 238 | 4.0 | 13.0 | 0.00 | 0.00 | 0.00 | 26 | 1010.7 |
| 20260503211508 | 61 | 331 | 4.0 | 16.0 | 0.00 | 0.00 | 0.00 | 26 | 1010.8 |
| 20260503210025 | 60 | 319 | 3.0 | 16.0 | 0.00 | 0.00 | 0.00 | 28 | 1010.8 |
| 20260503204555 | 61 | 246 | 4.0 | 12.0 | 0.00 | 0.00 | 0.00 | 27 | 1010.6 |
| 20260503203003 | 60 | 248 | 3.0 | 20.0 | 0.00 | 0.00 | 0.00 | 28 | 1010.8 |
| 20260503201525 | 60 | 317 | 5.0 | 12.0 | 0.00 | 0.00 | 0.00 | 29 | 1010.8 |
| 20260503200318 | 60 | 292 | 5.0 | 13.0 | 0.00 | 0.00 | 0.00 | 27 | 1011.0 |
| 20260503200033 | 60 | 284 | 3.0 | 13.0 | 0.00 | 0.00 | 0.00 | 29 | 1011.1 |
| 20260503194551 | 60 | 255 | 6.0 | 16.0 | 0.00 | 0.00 | 0.00 | 28 | 1011.1 |
| 20260503193028 | 59 | 254 | 5.0 | 13.0 | 0.00 | 0.00 | 0.00 | 29 | 1011.3 |
| 20260503191528 | 59 | 303 | 4.0 | 15.0 | 0.00 | 0.00 | 0.00 | 30 | 1011.4 |
| 20260503190052 | 58 | 36 | 5.0 | 18.0 | 0.00 | 0.00 | 0.00 | 31 | 1011.3 |
| 20260503184607 | 57 | 287 | 4.0 | 11.0 | 0.00 | 0.00 | 0.00 | 34 | 1011.7 |
| 20260503183005 | 57 | 15 | 5.0 | 15.0 | 0.00 | 0.00 | 0.00 | 33 | 1011.8 |
| 20260503181515 | 56 | 262 | 4.0 | 12.0 | 0.00 | 0.00 | 0.00 | 36 | 1011.9 |
| 20260503180316 | 56 | 358 | 2.0 | 12.0 | 0.00 | 0.00 | 0.00 | 37 | 1011.9 |
| 20260503180021 | 55 | 28 | 3.0 | 12.0 | 0.00 | 0.00 | 0.00 | 38 | 1012.1 |
| 20260503174539 | 54 | 32 | 4.0 | 14.0 | 0.00 | 0.00 | 0.00 | 38 | 1012.0 |
| 20260503173046 | 54 | 270 | 2.0 | 17.0 | 0.00 | 0.00 | 0.00 | 39 | 1012.1 |
| 20260503171601 | 54 | 254 | 5.0 | 13.0 | 0.00 | 0.00 | 0.00 | 37 | 1012.2 |
| 20260503140302 | 52 | 289 | 3.0 | 9.0 | 0.00 | 0.00 | 0.00 | 45 | 1012.7 |
| 20260503081542 | 47 | 188 | 2.0 | 7.0 | 0.00 | 0.00 | 0.00 | 51 | 1010.7 |
| 20260503080310 | 48 | 294 | 2.0 | 5.0 | 0.00 | 0.00 | 0.00 | 51 | 1010.7 |
| 20260503071531 | 48 | 309 | 1.0 | 6.0 | 0.00 | 0.00 | 0.00 | 48 | 1010.7 |
| 20260503060309 | 51 | 318 | 3.0 | 7.0 | 0.00 | 0.00 | 0.00 | 44 | 1010.8 |
| 20260503054549 | 50 | 18 | 1.0 | 7.0 | 0.00 | 0.00 | 0.00 | 43 | 1010.8 |
| 20260503053008 | 51 | 355 | 4.0 | 11.0 | 0.00 | 0.00 | 0.00 | 41 | 1010.9 |
| 20260503051518 | 51 | 209 | 3.0 | 9.0 | 0.00 | 0.00 | 0.00 | 41 | 1011.3 |
| 20260503050025 | 51 | 341 | 2.0 | 9.0 | 0.00 | 0.00 | 0.00 | 42 | 1011.3 |
| 20260503044544 | 52 | 356 | 3.0 | 13.0 | 0.00 | 0.00 | 0.00 | 41 | 1011.4 |
| 20260503043040 | 52 | 3 | 3.0 | 10.0 | 0.00 | 0.00 | 0.00 | 42 | 1011.3 |
| 20260503041551 | 52 | 77 | 2.0 | 7.0 | 0.00 | 0.00 | 0.00 | 41 | 1011.4 |
| 20260503040305 | 53 | 334 | 2.0 | 7.0 | 0.00 | 0.00 | 0.00 | 41 | 1011.5 |
| 20260503040104 | 52 | 8 | 2.0 | 7.0 | 0.00 | 0.00 | 0.00 | 41 | 1011.5 |
| 20260503034518 | 53 | 281 | 2.0 | 10.0 | 0.00 | 0.00 | 0.00 | 41 | 1011.4 |
| 20260503033044 | 53 | 23 | 2.0 | 6.0 | 0.00 | 0.00 | 0.00 | 40 | 1011.3 |
| 20260503031559 | 53 | 307 | 2.0 | 9.0 | 0.00 | 0.00 | 0.00 | 40 | 1011.3 |
| 20260503030018 | 54 | 20 | 2.0 | 12.0 | 0.00 | 0.00 | 0.00 | 38 | 1011.4 |
| 20260503024533 | 54 | 346 | 2.0 | 8.0 | 0.00 | 0.00 | 0.00 | 39 | 1011.4 |
| 20260503023048 | 54 | 337 | 1.0 | 7.0 | 0.00 | 0.00 | 0.00 | 38 | 1011.3 |
| 20260503021513 | 54 | 69 | 1.0 | 6.0 | 0.00 | 0.00 | 0.00 | 39 | 1011.3 |
| 20260503020331 | 55 | 11 | 1.0 | 4.0 | 0.00 | 0.00 | 0.00 | 38 | 1011.4 |
| 20260503020058 | 54 | 316 | 0.0 | 6.0 | 0.00 | 0.00 | 0.00 | 38 | 1011.4 |
| 20260503014505 | 55 | 38 | 2.0 | 6.0 | 0.00 | 0.00 | 0.00 | 38 | 1011.3 |
| 20260503013026 | 55 | 45 | 1.0 | 8.0 | 0.00 | 0.00 | 0.00 | 37 | 1011.5 |
| 20260503011551 | 55 | 209 | 1.0 | 9.0 | 0.00 | 0.00 | 0.00 | 37 | 1011.3 |
| 20260503010051 | 56 | 290 | 2.0 | 8.0 | 0.00 | 0.00 | 0.00 | 37 | 1011.1 |
| 20260503004508 | 56 | 33 | 4.0 | 9.0 | 0.00 | 0.00 | 0.00 | 37 | 1010.9 |
| 20260503003043 | 56 | 11 | 4.0 | 11.0 | 0.00 | 0.00 | 0.00 | 37 | 1010.8 |
| 20260503001558 | 56 | 6 | 0.0 | 8.0 | 0.00 | 0.00 | 0.00 | 37 | 1010.7 |
| 20260503000302 | 57 | 329 | 1.0 | 5.0 | 0.00 | 0.00 | 0.00 | 37 | 1010.6 |
| 20260503000038 | 57 | 316 | 0.0 | 5.0 | 0.00 | 0.00 | 0.00 | 37 | 1010.6 |
| 20260502234551 | 57 | 328 | 2.0 | 7.0 | 0.00 | 0.00 | 0.00 | 36 | 1010.6 |
| 20260502233100 | 58 | 313 | 1.0 | 6.0 | 0.00 | 0.00 | 0.00 | 36 | 1010.6 |